User: anonymous   Login
Location: Isles
(48.9125°N, 2.8272°E)
Time: 08:46:25
(UTC+00:00)
Language:

CZ-4C R/B - Orbit

View from above orbital plane
View from above orbital plane
View from above satellite
View from above satellite

Ground track
Ground track

The orbit data is extracted from the following two-line orbital elements,

1 39211U 13037D   23156.60323754  .00006290  00000-0  32311-3 0  9997
2 39211  98.0720 350.1442 0111042 149.5607 211.2131 15.11601479542281
Epoch (UTC): 05 June 2023 14:28:39
Eccentricity: 0.0111042
inclination: 98.0720°
perigee height: 454 km
apogee height: 608 km
right ascension of ascending node: 350.1442°
argument of perigee: 149.5607°
revolutions per day: 15.11601479
mean anomaly at epoch: 211.2131°
orbit number at epoch: 54228

The dashed part of the orbit path shows where the satellite is in the earth's shadow,  

DLR